Location: Unspecified
(47.9110°N, 14.3980°E)
Time: 04:00:19
(UTC+00:00)

ATLAS 5 CENTAUR R/B - Pass Details

Date: 06 August 2020
Orbit: 533 x 1125 km, 63.4° (Epoch: 18 September)

Event Time Altitude Azimuth Distance (km) Brightness Sun altitude
Rises 21:24:06 0° 306° (NW) 3,397 6.4 -21.6°
Reaches altitude 10° 21:27:18 10° 287° (WNW) 2,572 5.3 -21.9°
Maximum altitude 21:31:03 17° 248° (WSW) 2,213 4.4 -22.1°
Enters shadow 21:34:01 13° 218° (SW) 2,569 4.4 -22.4°
